Location: Batang Balui
(2.7000°N, 113.7833°E)
Time: 08:29:08
(UTC+00:00)

Hubble Space Telescope - Visible Passes

Search period start: 30 November 2023 00:00
Search period end: 10 December 2023 00:00
Orbit: 519 x 523 km, 28.5° (Epoch: 29 November)

Date Brightness Start Highest point End Pass type
(mag) Time Alt. Az. Time Alt. Az. Time Alt. Az.
05 Dec 2.7 11:00:25 10° N 11:02:14 13° NNE 11:02:37 12° NNE visible
06 Dec 2.5 10:43:23 10° NNW 10:45:50 16° NNE 10:48:05 11° ENE visible
06 Dec 3.5 12:22:39 10° WNW 12:23:07 13° WNW 12:23:07 13° WNW visible
07 Dec 2.0 12:06:14 10° WNW 12:08:46 36° W 12:08:46 36° W visible
08 Dec 1.4 11:49:52 10° WNW 11:53:45 50° SSW 11:54:35 42° S visible
09 Dec 2.0 11:33:32 10° W 11:37:17 38° SSW 11:40:28 13° SE visible
09 Dec 3.5 21:46:24 10° SSW 21:49:06 17° SSE 21:51:48 10° ESE visible
